Regional Weather Roundup
Issued by NWS Upton, NY

Current Version | Previous Version | Text Only | Print | Product List | Glossary On
Versions: 1 2 3 4 5 6 7 8 9 10 11 12 13 14 15 16 17 18 19 20 21 22 23 24 25 26 27 28
000 ASUS41 KOKX 250609 RWROKX REGIONAL WEATHER ROUNDUP NATIONAL WEATHER SERVICE NEW YORK NY 200 AM EDT TUE JUL 25 2017 NOTE: "FAIR" INDICATES FEW OR NO CLOUDS BELOW 12,000 FEET WITH NO SIGNIFICANT WEATHER AND/OR OBSTRUCTIONS TO VISIBILITY. NYZ071-072-176-178-NJZ106-104-250700- NEW YORK CITY METRO AREA CITY SKY/WX TMP DP RH WIND PRES REMARKS Central Park CLOUDY 64 58 80 VRB6 30.01R Bronx Bot Gard N/A 61 55 82 W2 29.99S LaGuardia APRT CLOUDY 64 59 83 E12 29.97R Kennedy INTL CLOUDY 64 61 90 E5 29.99R Breezy Point N/A 63 N/A N/A E6 N/A Newark/Liberty CLOUDY 65 58 78 NE8 29.98R Teterboro CLOUDY 63 57 81 VRB3 29.98R $$ NYZ177-179-078>081-250700- LONG ISLAND NEW YORK CITY SKY/WX TMP DP RH WIND PRES REMARKS Jones Beach N/A 63 N/A N/A NE12 N/A Matinecock PT N/A 63 N/A N/A E13 N/A Farmingdale CLOUDY 62 57 83 E7 29.99R MacArthur/ISP CLOUDY 63 58 83 NE8 29.99R Shirley CLOUDY 62 59 90 N5 29.99R Mt Sinai Harb N/A N/A N/A N/A NE9G15 N/A Westhampton CLOUDY 62 57 83 NE3 30.00R East Hampton CLOUDY 60 56 86 NE3 29.97S Montauk N/A 63 58 83 NE7 29.99R $$ NYZ052-065-067-250700- HUDSON VALLEY CITY SKY/WX TMP DP RH WIND PRES REMARKS White Plains PTCLDY 60 55 83 NE3 29.99R Larchmont Harb N/A 61 N/A N/A N9 N/A Croton O-T Hud N/A 61 N/A N/A E2 N/A Newburgh CLOUDY 61 57 88 E6 30.00R Montgomery CLOUDY 61 56 83 NE3 29.98S Poughkeepsie CLOUDY 60 54 80 CALM 29.98R Albany CLOUDY 59 55 87 CALM 29.98S $$ NJZ001-105-106-008-010-013-015-019>022-104-250700- NEW JERSEY CITY SKY/WX TMP DP RH WIND PRES REMARKS Newark/Liberty CLOUDY 65 58 78 NE8 29.98R Teterboro CLOUDY 63 57 81 VRB3 29.98R Caldwell CLOUDY 60 58 92 E7 29.99S Somerville CLOUDY 65 63 93 CALM 29.96S FOG Linden CLOUDY 65 57 76 CALM 29.98S Perth Amboy N/A 63 N/A N/A NE8 N/A Sussex CLOUDY 61 60 97 CALM 29.98S Andover N/A 62 59 90 CALM 29.98S Trenton CLOUDY 65 63 93 NE6 29.96S Millville CLOUDY 68 68 100 CALM 29.93S Atlantic City CLOUDY 70 69 97 E3 29.93S Wrightstown CLOUDY 64 64 100 E6 29.93R Toms River CLOUDY 66 65 96 NE6 29.96R Belmar CLOUDY 65 62 90 NE9 29.96 $$ PAZ047>061-062-071-250700- EASTERN PENNSYLVANIA CITY SKY/WX TMP DP RH WIND PRES REMARKS Philadelphia CLOUDY 68 66 93 NE7 29.96R Allentown CLOUDY 67 61 81 E6 29.97S Scranton CLOUDY 69 61 75 NW5 29.96R $$ CTZ002-004>006-009-010-012-RIZ004-006-007-MAZ004-011-015-250700- SOUTHERN NEW ENGLAND IN CT CITY SKY/WX TMP DP RH WIND PRES REMARKS Bradley INTL CLOUDY 58 54 86 N7 30.00R Hartford CLOUDY 60 55 83 N8 29.99S Danbury CLOUDY 59 55 87 NE7 30.00S Wtrbury/Oxford CLOUDY 57 52 82 NE6 30.00S Bridgeport LGT RAIN 62 55 77 NE8 29.99R Meriden CLOUDY 59 54 83 N8 29.99R New Haven CLOUDY 61 55 81 NE7 29.99R Chester CLOUDY 59 55 88 NE5G12 29.99R Groton CLOUDY 60 56 86 N8 29.97R Wilimantic CLOUDY 60 56 86 N7 29.99S IN RI CITY SKY/WX TMP DP RH WIND PRES REMARKS Providence CLOUDY 58 58 100 N12 29.98R FOG Block Island CLOUDY 61 57 87 NE17G25 29.95F Westerly CLOUDY 60 57 89 N7 29.96F IN MA CITY SKY/WX TMP DP RH WIND PRES REMARKS Boston CLOUDY 58 57 97 N13G18 29.99R Worcester CLOUDY 52 51 97 NE13G18 29.99F FOG Westfield LGT RAIN 57 55 93 N5 30.00S Provincetown CLOUDY 58 57 97 N10 29.96R FOG Nantucket CLOUDY 62 60 93 N16 29.91R $$ ANZ330-335-338-340-345-350-353-355-250700- COASTAL MARINE OBSERVATIONS STATION/POSITION TIME SKY/WX TEMP WIND PRES VSBY WAVE AIR SEA DIR/SP/G HT/PER (UTC) (F) (DEG/KT/KT) (MB) (MI) (FT/S) NY HARB ENTRANCE 0450 66 71 70/ 10/ 12 1014.3 4/ 6 20 S FIRE ISLAND 0550 67 73 70/ 10/ 12 1014.1 5/ 6 GREAT SOUTH BAY 0530 64 77 50/ 8/ 12 N/A 23 SSW MONTAUK P 0450 64 72 1014.2 5/ 7 15 E BARNEGAT LI 0530 71 N/A 5/ 7 HUDSON CANYON 0450 69 74 60/ 10/ 14 1013.3 5/ 7 KINGS POINT 0542 63 71 80/ 2/ 5 1015.3 EXECUTION ROCKS 0545 64 70/ 10/ 16 N/A CENTRAL LI SOUND 0515 62 50/ 14/ 17 N/A 2 EASTERN LI SOUND NOT AVBL ROBBINS REEF 0536 70/ 10/ 12 1015.6 $$ >>>>>>>>>>>>>>>>>>>>>>>>>>>> KEY <<<<<<<<<<<<<<<<<<<<<<<<<<< > < > SKY/WX - Sky Condition/Present Weather < > TMP - Temperature in Fahrenheit < > DP - Dew Point in Fahrenheit < > RH - Relative Humidity in Percent < > WIND - Direction (from) and Speed in MPH < > PRES - Mean Sea Level Pressure (inches of Hg) < > WCI - Wind Chill Index < > VSB - VISIBILITY IN MILES < > HX - HEAT INDEX < > TC - TEMPERATURE IN CELSIUS < > VRB - VARIABLE WIND DIRECTION < > < >>>>>>>>>>>>>>>>>>>>>>>>>>>> KEY <<<<<<<<<<<<<<<<<<<<<<<<<<<

USA.gov is the U.S. government's official web portal to all federal, state and local government web resources and services.